Weather History for KTAN - September, 2013

Change the Weather History Date:

Monday, September 2, 2013

  Actual Average Record
Temperature  
Mean Temperature 76 °F -  
Max Temperature 82 °F 78 °F 98 °F (1953)
Min Temperature 72 °F 55 °F 41 °F (1991)
Cooling Degree Days 12    
Growing Degree Days 26 (Base 50)    
Moisture  
Dew Point 72 °F    
Average Humidity 91    
Maximum Humidity 97    
Minimum Humidity 77    
Precipitation  
Precipitation 0.30 in - - ()
Sea Level Pressure  
Sea Level Pressure 29.79 in    
Wind  
Wind Speed 5 mph (South)    
Max Wind Speed 10 mph    
Max Gust Speed 22 mph    
Visibility 7 miles    
Events Rain , Thunderstorm    
Averages and records for this station are not official NWS values.
T = Trace of Precipitation, MM = Missing Value Source: NWS Daily Summary

Daily Weather History Graph

Daily Weather History Graph

Search for Another Location

Airport or City:

Trip Planner

Search our weather history database for the weather conditions in past years. The results will help you decide how hot, cold, wet, or windy it might be!

Date:

Astronomy

Sep. 02, 2013 Rise Set
Actual Time 6:11 AM EDT 7:15 PM EDT
Civil Twilight 5:42 AM EDT 7:44 PM EDT
Nautical Twilight 5:08 AM EDT 8:18 PM EDT
Astronomical Twilight 4:32 AM EDT 8:53 PM EDT
Moon 3:23 AM EDT 5:28 PM EDT
Length of Visible Light 14h 01m
Length of Day
13h 04m
Waning Crescent, 8% of the Moon is Illuminated
Sep 2
Waning Crescent
Sep 5
New
Sep 12
First Quarter
Sep 19
Full
Sep 26
Last Quarter

Hourly Weather History & Observations

Time (EDT) Temp. Heat Index Dew Point Humidity Pressure Visibility Wind Dir Wind Speed Gust Speed Precip Events Conditions
12:38 AM 73.9 °F - 72.0 °F 93% 29.87 in 8.0 mi South 5.8 mph - N/A   Overcast
12:52 AM 73.9 °F - 72.0 °F 93% 29.87 in 8.0 mi SSE 5.8 mph - N/A   Overcast
1:52 AM 73.9 °F - 72.0 °F 93% 29.85 in 8.0 mi Variable 3.5 mph - N/A   Overcast
2:52 AM 73.0 °F - 71.1 °F 93% 29.84 in 10.0 mi SSE 4.6 mph - N/A   Overcast
3:52 AM 73.0 °F - 71.1 °F 93% 29.83 in 6.0 mi SSE 3.5 mph - N/A   Overcast
4:30 AM 73.0 °F - 71.1 °F 93% 29.83 in 1.8 mi SSE 4.6 mph - N/A   Overcast
4:52 AM 72.0 °F - 71.1 °F 97% 29.83 in 2.0 mi SSE 4.6 mph - N/A   Overcast
5:08 AM 72.0 °F - 71.1 °F 97% 29.83 in 1.5 mi SSE 3.5 mph - N/A   Overcast
5:38 AM 72.0 °F - 71.1 °F 97% 29.83 in 3.0 mi SSE 6.9 mph - N/A   Overcast
5:52 AM 72.0 °F - 71.1 °F 97% 29.84 in 8.0 mi South 3.5 mph - N/A   Overcast
6:02 AM 72.0 °F - 71.1 °F 97% 29.84 in 5.0 mi South 3.5 mph - N/A Thunderstorm Overcast
6:20 AM 72.0 °F - 71.1 °F 97% 29.85 in 6.0 mi South 4.6 mph - N/A Thunderstorm Overcast
6:35 AM 72.0 °F - 71.1 °F 97% 29.84 in 6.0 mi Calm Calm - 0.00 in Rain , Thunderstorm Light Rain
6:48 AM 73.4 °F - 71.6 °F 94% 29.84 in 5.0 mi Calm Calm - 0.02 in Rain , Thunderstorm Rain
6:52 AM 73.0 °F - 71.1 °F 93% 29.85 in 3.0 mi Calm Calm - 0.03 in Rain , Thunderstorm Rain
6:57 AM 73.0 °F - 71.1 °F 93% 29.85 in 2.5 mi Calm Calm - 0.01 in Rain Rain
7:08 AM 73.0 °F - 71.1 °F 93% 29.85 in 3.0 mi Calm Calm - 0.06 in Rain Rain
7:15 AM 72.0 °F - 71.1 °F 97% 29.84 in 2.5 mi Calm Calm - 0.08 in Rain Rain
7:25 AM 73.0 °F - 71.1 °F 93% 29.83 in 5.0 mi SE 3.5 mph - 0.09 in Rain Light Rain
7:52 AM 73.0 °F - 71.1 °F 93% 29.84 in 10.0 mi South 3.5 mph - 0.09 in   Overcast
7:58 AM 73.0 °F - 71.1 °F 93% 29.84 in 10.0 mi SE 4.6 mph - N/A   Overcast
8:45 AM 73.0 °F - 71.1 °F 93% 29.84 in 10.0 mi SSW 4.6 mph - N/A   Overcast
8:52 AM 73.0 °F - 71.1 °F 93% 29.83 in 10.0 mi SE 4.6 mph - N/A   Overcast
9:16 AM 73.9 °F - 71.1 °F 91% 29.83 in 10.0 mi SSE 6.9 mph - N/A   Overcast
9:52 AM 75.0 °F - 72.0 °F 90% 29.82 in 10.0 mi SSE 6.9 mph - N/A   Overcast
10:27 AM 77.0 °F - 73.0 °F 88% 29.83 in 10.0 mi South 8.1 mph - N/A   Overcast
10:50 AM 78.8 °F - 73.4 °F 83% 29.83 in 10.0 mi South 5.8 mph - N/A   Overcast
10:52 AM 78.1 °F - 73.0 °F 84% 29.83 in 10.0 mi South 8.1 mph - N/A   Overcast
11:52 AM 81.0 °F 85.8 °F 73.0 °F 77% 29.81 in 10.0 mi SSE 10.4 mph 20.7 mph N/A   Mostly Cloudy
12:52 PM 81.0 °F 85.8 °F 73.0 °F 77% 29.79 in 10.0 mi SSW 8.1 mph - N/A   Overcast
1:52 PM 79.0 °F - 72.0 °F 79% 29.78 in 10.0 mi SSW 10.4 mph - N/A   Mostly Cloudy
1:59 PM 79.0 °F - 72.0 °F 79% 29.79 in 10.0 mi SSW 10.4 mph - N/A   Overcast
2:03 PM 79.0 °F - 72.0 °F 79% 29.79 in 10.0 mi South 6.9 mph - N/A Thunderstorm Thunderstorm
2:10 PM 78.1 °F - 73.0 °F 84% 29.78 in 10.0 mi SSW 8.1 mph 17.3 mph 0.00 in Rain , Thunderstorm Light Thunderstorms and Rain
2:17 PM 78.1 °F - 73.0 °F 84% 29.79 in 10.0 mi South 6.9 mph - 0.00 in   Overcast
2:41 PM 77.0 °F - 73.0 °F 88% 29.78 in 8.0 mi South 6.9 mph - 0.00 in Thunderstorm Mostly Cloudy
2:47 PM 77.0 °F - 73.4 °F 89% 29.78 in 4.0 mi South 5.8 mph - 0.01 in Rain , Thunderstorm Thunderstorms and Rain
2:52 PM 75.9 °F - 73.0 °F 91% 29.77 in 2.5 mi Variable 5.8 mph - 0.03 in Rain , Thunderstorm Heavy Thunderstorms and Rain
2:58 PM 75.9 °F - 73.0 °F 91% 29.77 in 3.0 mi SSW 5.8 mph - 0.01 in Rain , Thunderstorm Thunderstorms and Rain
3:01 PM 75.9 °F - 73.9 °F 94% 29.77 in 2.5 mi WSW 4.6 mph - 0.04 in Rain , Thunderstorm Thunderstorms and Rain
3:03 PM 75.9 °F - 73.9 °F 94% 29.78 in 1.8 mi SW 5.8 mph - 0.06 in Rain , Thunderstorm Heavy Thunderstorms and Rain
3:05 PM 75.9 °F - 73.9 °F 94% 29.78 in 1.2 mi Variable 6.9 mph - 0.08 in Rain , Thunderstorm Heavy Rain
3:10 PM 75.0 °F - 73.0 °F 94% 29.78 in 1.2 mi South 9.2 mph 21.9 mph 0.11 in Rain , Thunderstorm Heavy Thunderstorms and Rain
3:12 PM 73.9 °F - 72.0 °F 93% 29.77 in 1.5 mi SSE 9.2 mph 21.9 mph 0.13 in Rain , Thunderstorm Heavy Thunderstorms and Rain
3:15 PM 73.9 °F - 72.0 °F 93% 29.76 in 2.0 mi SSE 4.6 mph 21.9 mph 0.14 in Rain , Thunderstorm Heavy Thunderstorms and Rain
3:20 PM 73.9 °F - 71.1 °F 91% 29.76 in 3.0 mi South 4.6 mph - 0.14 in Rain , Thunderstorm Light Thunderstorms and Rain
3:41 PM 73.9 °F - 72.0 °F 93% 29.76 in 10.0 mi SE 9.2 mph - 0.15 in Rain , Thunderstorm Light Rain
3:52 PM 75.0 °F - 72.0 °F 90% 29.75 in 10.0 mi SE 8.1 mph - 0.15 in   Scattered Clouds
4:21 PM 75.0 °F - 72.0 °F 90% 29.75 in 10.0 mi SSE 8.1 mph - N/A   Scattered Clouds
4:34 PM 75.0 °F - 72.0 °F 90% 29.75 in 10.0 mi SE 5.8 mph - N/A   Mostly Cloudy
4:42 PM 75.0 °F - 72.0 °F 90% 29.75 in 10.0 mi Variable 4.6 mph - N/A   Mostly Cloudy
4:52 PM 75.0 °F - 72.0 °F 90% 29.75 in 10.0 mi SSE 5.8 mph - N/A   Overcast
4:59 PM 75.0 °F - 72.0 °F 90% 29.75 in 9.0 mi SSE 8.1 mph - N/A   Overcast
5:39 PM 75.0 °F - 71.1 °F 87% 29.74 in 10.0 mi SSE 5.8 mph - N/A   Scattered Clouds
5:52 PM 75.0 °F - 71.1 °F 87% 29.73 in 9.0 mi SSE 4.6 mph - N/A   Mostly Cloudy
6:36 PM 73.9 °F - 71.1 °F 91% 29.73 in 7.0 mi South 4.6 mph - N/A   Overcast
6:52 PM 73.9 °F - 71.1 °F 91% 29.73 in 7.0 mi South 4.6 mph - N/A   Overcast
7:41 PM 73.0 °F - 71.1 °F 93% 29.73 in 6.0 mi South 6.9 mph - N/A   Overcast
7:52 PM 73.0 °F - 71.1 °F 93% 29.73 in 6.0 mi SSW 3.5 mph - N/A   Overcast
8:52 PM 73.0 °F - 71.1 °F 93% 29.74 in 6.0 mi South 3.5 mph - N/A   Overcast
9:13 PM 73.0 °F - 71.1 °F 93% 29.74 in 7.0 mi SSW 3.5 mph - N/A   Overcast
9:52 PM 73.0 °F - 71.1 °F 93% 29.74 in 8.0 mi Variable 3.5 mph - N/A   Overcast
10:32 PM 73.0 °F - 71.1 °F 93% 29.75 in 5.0 mi Calm Calm - N/A   Overcast
10:52 PM 73.0 °F - 71.1 °F 93% 29.75 in 6.0 mi Calm Calm - N/A   Overcast
11:50 PM 73.4 °F - 71.6 °F 94% 29.74 in 5.0 mi South 6.9 mph - N/A   Overcast
11:52 PM 73.0 °F - 71.1 °F 93% 29.74 in 5.0 mi South 5.8 mph - N/A   Overcast